Hourly Data Report for June 02, 2021

GAMETI
NORTHWEST TERRITORIES
Current Station Operator: ECCC - MSC

64°06'42.078" N
117°19'40.086" W
221.00 m
2203359
71165
WYH

Download Data

Hourly Data (June 2021)
Hourly Data Report for June 2, 2021
TIME
LST
Temp Definition
°C
Dew Point Definition
°C
Rel Hum Definition
%
Precip. Amount Definition
mm

Wind Dir Definition
10's deg

Wind Spd Definition
km/h
Visibility Definition
km
Stn Press Definition
kPa
Hmdx Definition


Wind Chill Definition


Weather Definition


00:00 6.8 6.7 99 LegendMM 34 4   97.74     LegendNANA
01:00 6.5 6.4 99 LegendMM 33 7   97.76     LegendNANA
02:00 6.1 6.0 99 LegendMM 33 10   97.77     LegendNANA
03:00 5.5 5.4 99 LegendMM 33 10   97.82     LegendNANA
04:00 5.4 5.3 99 LegendMM 34 5   97.85     LegendNANA
05:00 4.6 4.5 99 LegendMM 34 4   97.87     LegendNANA
06:00 5.5 5.4 99 LegendMM 32 8   97.89     LegendNANA
07:00 4.7 4.6 99 LegendMM 33 10   97.93     LegendNANA
08:00 5.3 5.1 99 LegendMM 32 7   97.96     LegendNANA
09:00 5.7 5.5 99 LegendMM 32 7   97.99     LegendNANA
10:00 5.6 5.1 97 LegendMM 33 10   98.00     LegendNANA
11:00 6.8 5.5 92 LegendMM 1 11   98.01     LegendNANA
12:00 7.2 5.7 90 LegendMM 34 7   98.01     LegendNANA
13:00 8.4 6.2 86 LegendMM 2 8   98.02     LegendNANA
14:00 9.4 6.3 81 LegendMM 3 9   98.02     LegendNANA
15:00 10.5 6.6 77 LegendMM 33 7   97.99     LegendNANA
16:00 11.9 7.0 72 LegendMM 35 10   97.94     LegendNANA
17:00 13.2 7.3 67 LegendMM 32 7   97.90     LegendNANA
18:00 13.7 7.1 64 LegendMM 32 5   97.84     LegendNANA
19:00 14.5 7.4 62 LegendMM 7 3   97.81     LegendNANA
20:00 13.3 6.4 63 LegendMM 8 9   97.81     LegendNANA
21:00 12.3 6.2 66 LegendMM 8 11   97.80     LegendNANA
22:00 10.8 6.1 73 LegendMM 7 13   97.78     LegendNANA
23:00 9.4 6.0 79 LegendMM 7 13   97.78     LegendNANA

Notes on Data Quality.

Legend

  • E = Estimated
  • M = Missing
  • NA = Not Available*
  • [empty] = Indicates an unobserved value
Date modified: